CAPE
22 23 17 9 4 5 11 0 0 0 0 0 15 74 112 332 492 568 700 619 569 488 361 141 257 272 291 311 271 202 156 236 273 313 358 340 294 175 63 0 0 0 0 0
1 20 18 7 0 0 0 0 0 0 1 0 0 0 13 142 366 461 383 703 602 497 366 196 230 312 213 228 168 142 187 256 269 279 215 126 23 19 26 11 24 12 0 0
0 0 4 4 0 0 0 0 0 0 0 0 0 0 0 0 186 341 319 488 577 156 150 109 239 140 113 138 156 143 236 295 313 342 284 194 55 76 77 28 24 0 0 0
0 0 0 0 0 0 0 0 0 0 0 0 0 0 0 0 123 226 231 365 489 42 9 17 87 60 89 89 207 229 189 332 363 401 431 140 124 112 49 27 0 0 0 0
0 0 0 0 0 0 0 0 0 0 0 0 0 0 0 0 91 133 85 138 106 24 64 68 56 62 73 113 169 303 225 285 414 358 268 183 160 90 28 0 0 0 0 0
0 0 0 0 0 0 0 0 0 0 0 0 0 0 0 0 0 14 85 48 43 44 35 83 41 53 91 82 163 262 289 449 442 417 276 223 131 4 1 0 0 0 0 0
0 0 0 0 0 0 0 0 0 0 0 0 0 0 0 0 0 0 0 29 33 32 45 98 135 160 157 163 201 242 389 483 568 513 347 154 39 1 0 0 0 0 0 2
0 0 0 0 0 1 0 0 0 0 0 0 0 0 0 21 33 4 0 0 8 26 18 93 280 375 292 306 328 287 483 628 639 505 375 187 340 12 0 2 5 0 5 7
0 0 0 0 7 9 0 0 0 0 0 0 0 0 0 29 50 62 16 5 102 78 83 176 384 505 518 484 495 512 523 520 450 434 228 409 439 24 1 7 29 35 2 7
0 0 0 3 8 16 4 1 0 0 0 0 0 0 0 11 52 29 0 10 87 230 214 252 427 555 652 722 791 731 621 518 437 230 341 352 129 18 8 8 14 33 15 2
0 0 0 0 15 40 29 19 4 0 0 0 0 0 0 2 19 0 0 0 40 237 324 441 539 570 670 800 892 751 585 435 361 413 30 11 7 1 21 50 51 25 12 1
0 0 0 0 3 27 7 0 10 0 0 0 0 0 0 0 5 0 69 67 53 489 653 726 754 770 805 973 751 440 401 398 428 247 32 13 20 38 54 66 63 29 13 12
0 0 0 0 0 0 21 17 25 12 0 0 0 0 0 0 0 0 1 92 216 540 796 897 912 942 995 849 569 418 515 472 243 67 22 17 19 47 69 83 4 9 6 1
0 0 0 0 2 17 71 61 32 13 0 0 0 0 0 0 0 0 0 0 0 372 586 660 682 765 839 757 562 378 212 122 42 19 39 54 57 60 66 43 28 35 26 1
0 0 0 0 0 11 11 3 6 7 0 0 0 0 0 0 0 0 0 0 0 0 177 470 519 468 428 511 438 158 75 72 65 55 64 77 73 71 61 53 50 26 5 6
1 6 11 20 12 3 0 4 1 0 0 0 0 0 0 0 0 0 0 0 0 4 112 277 415 420 343 128 102 97 68 68 74 71 71 85 65 63 70 51 28 13 0 0
16 18 11 0 0 0 0 0 0 0 0 0 0 0 0 0 0 0 0 0 0 0 0 0 4 57 149 94 84 74 70 56 78 83 67 44 68 85 28 20 22 17 2 0
17 5 0 0 0 0 0 0 0 0 0 0 0 0 0 0 0 0 0 0 0 0 0 0 0 6 26 42 60 61 73 95 84 99 71 38 34 37 64 27 10 0 0 0
14 6 0 0 0 0 0 0 0 0 0 0 0 0 0 0 0 0 0 0 0 0 0 0 0 0 13 31 45 86 88 79 61 55 26 23 47 23 18 8 0 0 0 0
12 18 13 0 0 0 0 0 0 0 0 0 0 0 0 0 0 0 0 0 0 0 0 0 0 0 8 11 52 61 47 48 48 48 32 3 1 0 0 0 0 0 0 0
18 28 20 5 0 0 0 0 0 0 0 0 0 0 0 0 0 0 0 0 0 0 0 0 0 0 0 0 2 11 23 25 10 4 4 0 0 0 0 0 0 0 0 0
8 56 19 4 12 4 0 0 0 0 0 0 0 0 0 0 0 0 0 0 0 0 0 0 0 0 0 4 12 16 17 3 0 0 0 0 0 0 0 0 0 0 0 0
0 0 0 25 7 1 0 0 0 0 0 0 0 0 0 0 0 0 0 0 0 0 0 0 3 1 4 5 6 0 0 0 0 0 0 0 0 0 0 0 0 0 0 0
7 0 0 0 0 0 0 0 0 0 0 0 0 0 0 0 0 0 0 0 0 0 0 3 6 12 12 7 1 2 1 0 0 0 0 0 0 0 0 0 0 0 0 0
2 26 1 0 0 0 0 0 0 0 0 0 0 0 0 0 0 0 0 0 0 2 7 12 17 12 4 5 3 0 0 0 0 0 0 0 0 0 0 0 0 0 0 0
0 1 1 4 0 0 0 0 0 0 0 0 0 0 0 0 0 0 0 0 3 1 2 3 3 0 0 0 0 0 0 0 0 0 0 0 0 0 0 0 0 0 0 0
CIN
-32 -23 -17 -14 -29 -76 -46 -33 -0 -3 -0 -12 -3 -21 -28 -51 -58 -56 -77 -85 -116 -143 -111 -259 -183 -113 -91 -76 -61 -78 -136 -103 -82 -46 -29 -28 -14 -8 -12 -0 -0 -0 -0 -0
-9 -34 -17 -15 -0 -0 -0 -0 -0 -0 -14 -1 -0 -3 -13 -35 -41 -61 -96 -88 -91 -129 -178 -251 -224 -135 -124 -97 -94 -158 -141 -115 -70 -29 -32 -14 -55 -22 -24 -51 -53 -48 -0 -0
-0 -0 -31 -11 -0 -0 -0 -0 -0 -0 -0 -0 -0 -0 -0 -0 -35 -37 -57 -86 -72 -202 -283 -309 -231 -227 -163 -183 -79 -131 -158 -106 -56 -24 -10 -28 -17 -12 -26 -69 -71 -0 -0 -0
-0 -0 -0 -0 -0 -0 -0 -0 -0 -0 -0 -0 -0 -0 -0 -0 -50 -56 -61 -64 -91 -52 -43 -134 -257 -171 -162 -142 -86 -67 -109 -106 -53 -27 -21 -33 -4 -7 -30 -70 -1 -0 -0 -0
-0 -0 -0 -0 -0 -0 -0 -0 -0 -0 -0 -0 -0 -0 -0 -0 -58 -75 -70 -100 -128 -50 -53 -41 -28 -18 -14 -72 -74 -54 -49 -93 -47 -44 -54 -25 -8 -14 -83 -0 -0 -0 -0 -0
-0 -0 -0 -0 -0 -0 -0 -0 -0 -0 -0 -0 -0 -0 -0 -0 -0 -41 -52 -42 -39 -48 -62 -34 -26 -17 -9 -113 -17 -45 -38 -24 -41 -49 -58 -48 -12 -119 -75 -0 -0 -0 -0 -0
-0 -0 -0 -0 -0 -0 -0 -0 -0 -0 -0 -0 -0 -0 -0 -0 -0 -0 -0 -85 -57 -40 -47 -18 -298 -355 -324 -68 -55 -59 -43 -51 -41 -25 -27 -31 -49 -92 -0 -0 -0 -0 -0 -8
-0 -0 -0 -0 -0 -18 -26 -0 -0 -0 -0 -0 -0 -0 -0 -51 -59 -32 -0 -0 -119 -45 -51 -419 -330 -295 -271 -148 -55 -90 -35 -25 -18 -36 -38 -28 -12 -96 -4 -15 -8 -1 -6 -1
-0 -0 -0 -0 -36 -20 -2 -0 -0 -0 -0 -0 -0 -0 -0 -85 -55 -28 -28 -67 -98 -63 -52 -416 -341 -270 -204 -106 -66 -38 -80 -56 -68 -39 -30 -0 -6 -41 -17 -12 -0 -1 -4 -3
-0 -0 -0 -8 -68 -20 -15 -11 -0 -0 -0 -0 -0 -0 -0 -49 -51 -106 -0 -64 -220 -97 -69 -388 -306 -221 -160 -121 -82 -77 -72 -74 -47 -29 -7 -10 -25 -68 -7 -5 -4 -0 -1 -0
-0 -0 -0 -0 -8 -14 -12 -14 -9 -0 -0 -0 -0 -0 -0 -16 -49 -0 -0 -0 -267 -223 -380 -137 -29 -86 -142 -100 -58 -90 -76 -59 -29 -8 -41 -59 -52 -1 -6 -2 -11 -2 -0 -0
-0 -0 -0 -0 -22 -96 -50 -13 -8 -0 -0 -0 -0 -0 -0 -0 -32 -0 -66 -73 -187 -141 -80 -52 -37 -29 -71 -53 -93 -131 -82 -26 -22 -26 -46 -57 -9 -2 -5 -12 -11 -0 -0 -0
-0 -0 -0 -0 -0 -4 -46 -54 -43 -19 -0 -0 -0 -0 -0 -0 -0 -0 -3 -48 -37 -83 -66 -54 -60 -59 -60 -57 -42 -84 -55 -42 -44 -57 -22 -25 -2 -2 -5 -8 -4 -10 -1 -1
-0 -5 -0 -0 -3 -1 -4 -13 -14 -6 -0 -0 -0 -0 -0 -0 -0 -0 -0 -0 -0 -65 -48 -40 -53 -66 -69 -63 -65 -56 -35 -35 -12 -20 -15 -6 -15 -1 -2 -1 -0 -1 -0 -0
-0 -0 -0 -0 -2 -14 -8 -6 -2 -5 -0 -0 -0 -0 -0 -0 -0 -0 -0 -0 -0 -0 -97 -40 -21 -13 -32 -57 -41 -38 -27 -23 -12 -11 -6 -4 -0 -0 -0 -0 -0 -0 -2 -0
-21 -4 -14 -8 -13 -14 -0 -21 -12 -0 -0 -0 -0 -0 -0 -0 -0 -0 -0 -0 -0 -62 -36 -29 -15 -12 -11 -23 -62 -41 -15 -15 -11 -8 -4 -5 -0 -0 -0 -0 -0 -0 -0 -0
-10 -8 -4 -0 -0 -0 -0 -0 -0 -0 -0 -0 -0 -0 -0 -0 -0 -0 -0 -0 -0 -0 -0 -0 -61 -61 -37 -26 -15 -7 -17 -13 -18 -16 -8 -0 -0 -0 -0 -0 -0 -0 -4 -0
-4 -3 -0 -0 -0 -0 -0 -0 -0 -0 -0 -0 -0 -0 -0 -0 -0 -0 -0 -0 -0 -0 -0 -0 -0 -78 -43 -33 -22 -21 -12 -12 -9 -0 -0 -0 -0 -0 -0 -0 -10 -0 -0 -0
-10 -10 -0 -0 -0 -0 -0 -0 -0 -0 -0 -0 -0 -0 -0 -0 -0 -0 -0 -0 -0 -0 -0 -0 -0 -0 -32 -18 -14 -12 -7 -3 -1 -0 -0 -0 -0 -0 -1 -6 -0 -0 -0 -0
-12 -13 -6 -0 -0 -0 -0 -0 -0 -0 -0 -0 -0 -0 -0 -0 -0 -0 -0 -0 -0 -0 -0 -0 -0 -0 -13 -9 -10 -7 -3 -0 -0 -0 -0 -0 -9 -0 -0 -0 -0 -0 -0 -0
-49 -21 -20 -14 -0 -0 -0 -0 -0 -0 -0 -0 -0 -0 -0 -0 -0 -0 -0 -0 -0 -0 -0 -0 -0 -0 -0 -0 -4 -5 -0 -0 -0 -8 -4 -0 -0 -0 -0 -0 -0 -0 -0 -0
-38 -38 -31 -59 -54 -50 -0 -0 -0 -0 -0 -0 -0 -0 -0 -0 -0 -0 -0 -0 -0 -0 -0 -0 -0 -0 -0 -1 -2 -0 -0 -0 -0 -0 -0 -0 -0 -0 -0 -0 -0 -0 -0 -0
-1 -1 -2 -49 -29 -6 -1 -0 -0 -0 -0 -0 -0 -0 -0 -0 -0 -0 -0 -0 -0 -0 -0 -0 -1 -0 -3 -2 -1 -0 -0 -0 -0 -0 -0 -0 -0 -0 -0 -0 -0 -0 -0 -0
-4 -0 -0 -0 -0 -0 -0 -0 -0 -0 -0 -0 -0 -0 -0 -0 -0 -0 -0 -0 -0 -0 -0 -3 -3 -1 -1 -1 -0 -2 -1 -0 -0 -0 -0 -0 -0 -0 -0 -0 -0 -0 -0 -0
-0 -3 -2 -0 -0 -0 -0 -0 -0 -0 -0 -0 -0 -0 -0 -0 -0 -0 -0 -0 -0 -2 -0 -1 -0 -1 -1 -1 -1 -0 -0 -0 -0 -0 -0 -0 -0 -0 -0 -0 -0 -0 -0 -0
-0 -12 -126 -58 -0 -0 -0 -0 -0 -0 -0 -0 -0 -0 -0 -0 -0 -0 -0 -0 -1 -0 -0 -0 -0 -0 -0 -0 -0 -0 -0 -0 -0 -0 -0 -0 -0 -0 -0 -0 -0 -0 -0 -0
Wind_Speed
nan nan nan nan nan nan nan nan nan nan nan nan nan nan 13 13 10 5 7 11 11 15 15 10 8 5 2 3 3 8 12 11 14 13 13 15 15 13 nan nan nan nan nan nan
nan nan nan nan nan nan nan nan nan nan nan nan nan nan nan 8 8 9 9 10 13 15 11 12 9 6 8 9 9 9 14 14 14 12 13 12 nan nan nan nan nan nan nan nan
nan nan nan nan nan nan nan nan nan nan nan nan nan nan nan nan 4 3 8 13 11 15 14 13 12 12 11 14 16 16 15 15 13 13 12 13 nan nan nan nan nan nan nan nan
nan nan nan nan nan nan nan nan nan nan nan nan nan nan nan nan 5 5 13 14 14 nan nan nan nan nan nan nan 13 16 17 15 13 15 14 19 20 24 nan nan nan nan nan nan
nan nan nan nan nan nan nan nan nan nan nan nan nan nan nan nan nan 10 nan 9 8 nan nan nan nan nan nan 12 14 14 14 13 12 15 17 19 26 nan nan nan nan nan nan nan
nan nan nan nan nan nan nan nan nan nan nan nan nan nan nan nan nan nan nan nan nan nan nan nan nan nan nan nan 10 11 13 14 16 19 23 27 32 nan nan nan nan nan nan nan
nan nan nan nan nan nan nan nan nan nan nan nan nan nan nan nan nan nan nan nan nan nan nan nan 8 9 10 12 11 10 14 17 21 25 27 31 nan nan nan nan nan nan nan nan
nan nan nan nan nan nan nan nan nan nan nan nan nan nan nan nan nan nan nan nan nan nan nan nan 12 12 14 16 18 17 21 21 24 28 33 35 41 nan nan nan nan nan nan nan
nan nan nan nan nan nan nan nan nan nan nan nan nan nan nan nan nan nan nan nan 4 nan nan 15 16 16 18 19 22 24 27 26 30 35 39 44 47 nan nan nan nan nan nan nan
nan nan nan nan nan nan nan nan nan nan nan nan nan nan nan nan nan nan nan nan nan 9 13 13 15 19 20 22 25 27 30 35 38 43 47 51 55 nan nan nan nan nan nan nan
nan nan nan nan nan nan nan nan nan nan nan nan nan nan nan nan nan nan nan nan nan 13 16 15 17 20 23 23 26 31 37 42 46 51 nan nan nan nan nan nan nan nan nan nan
nan nan nan nan nan nan nan nan nan nan nan nan nan nan nan nan nan nan nan nan nan 18 21 20 23 26 29 29 32 36 41 46 49 46 nan nan nan nan nan nan nan nan nan nan
nan nan nan nan nan nan nan nan nan nan nan nan nan nan nan nan nan nan nan nan 24 22 19 24 29 29 28 32 37 38 45 47 50 nan nan nan nan nan nan nan nan nan nan nan
nan nan nan nan nan nan nan nan nan nan nan nan nan nan nan nan nan nan nan nan nan 23 22 25 25 29 34 36 39 42 43 47 nan nan nan nan nan nan nan nan nan nan nan nan
nan nan nan nan nan nan nan nan nan nan nan nan nan nan nan nan nan nan nan nan nan nan 29 29 31 33 35 40 40 39 nan nan nan nan nan nan nan nan nan nan nan nan nan nan
nan nan nan nan nan nan nan nan nan nan nan nan nan nan nan nan nan nan nan nan nan nan 28 31 36 38 39 39 42 nan nan nan nan nan nan nan nan nan nan nan nan nan nan nan
nan nan nan nan nan nan nan nan nan nan nan nan nan nan nan nan nan nan nan nan nan nan nan nan nan nan 41 nan nan nan nan nan nan nan nan nan nan nan nan nan nan nan nan nan
nan nan nan nan nan nan nan nan nan nan nan nan nan nan nan nan nan nan nan nan nan nan nan nan nan nan nan nan nan nan nan nan nan nan nan nan nan nan nan nan nan nan nan nan
nan nan nan nan nan nan nan nan nan nan nan nan nan nan nan nan nan nan nan nan nan nan nan nan nan nan nan nan nan nan nan nan nan nan nan nan nan nan nan nan nan nan nan nan
nan nan nan nan nan nan nan nan nan nan nan nan nan nan nan nan nan nan nan nan nan nan nan nan nan nan nan nan nan nan nan nan nan nan nan nan nan nan nan nan nan nan nan nan
nan nan nan nan nan nan nan nan nan nan nan nan nan nan nan nan nan nan nan nan nan nan nan nan nan nan nan nan nan nan nan nan nan nan nan nan nan nan nan nan nan nan nan nan
nan nan nan nan nan nan nan nan nan nan nan nan nan nan nan nan nan nan nan nan nan nan nan nan nan nan nan nan nan nan nan nan nan nan nan nan nan nan nan nan nan nan nan nan
nan nan nan nan nan nan nan nan nan nan nan nan nan nan nan nan nan nan nan nan nan nan nan nan nan nan nan nan nan nan nan nan nan nan nan nan nan nan nan nan nan nan nan nan
nan nan nan nan nan nan nan nan nan nan nan nan nan nan nan nan nan nan nan nan nan nan nan nan nan nan nan nan nan nan nan nan nan nan nan nan nan nan nan nan nan nan nan nan
nan nan nan nan nan nan nan nan nan nan nan nan nan nan nan nan nan nan nan nan nan nan nan nan nan nan nan nan nan nan nan nan nan nan nan nan nan nan nan nan nan nan nan nan
nan nan nan nan nan nan nan nan nan nan nan nan nan nan nan nan nan nan nan nan nan nan nan nan nan nan nan nan nan nan nan nan nan nan nan nan nan nan nan nan nan nan nan nan
Wind_Direction
nan nan nan nan nan nan nan nan nan nan nan nan nan nan 99 80 103 101 82 59 55 54 55 55 50 62 289 267 303 332 327 317 305 298 297 278 288 285 nan nan nan nan nan nan
nan nan nan nan nan nan nan nan nan nan nan nan nan nan nan 104 78 52 47 67 64 60 53 54 41 6 354 347 343 325 327 317 314 302 289 288 nan nan nan nan nan nan nan nan
nan nan nan nan nan nan nan nan nan nan nan nan nan nan nan nan 135 120 49 51 48 39 32 28 22 6 339 340 339 339 333 321 312 302 282 274 nan nan nan nan nan nan nan nan
nan nan nan nan nan nan nan nan nan nan nan nan nan nan nan nan 313 65 33 20 21 nan nan nan nan nan nan nan 315 319 319 321 320 315 302 305 306 301 nan nan nan nan nan nan
nan nan nan nan nan nan nan nan nan nan nan nan nan nan nan nan nan 328 nan 8 27 nan nan nan nan nan nan 322 315 308 304 310 305 306 302 303 299 nan nan nan nan nan nan nan
nan nan nan nan nan nan nan nan nan nan nan nan nan nan nan nan nan nan nan nan nan nan nan nan nan nan nan nan 306 318 321 327 316 311 307 307 305 nan nan nan nan nan nan nan
nan nan nan nan nan nan nan nan nan nan nan nan nan nan nan nan nan nan nan nan nan nan nan nan 335 335 316 330 330 313 323 319 312 314 310 309 nan nan nan nan nan nan nan nan
nan nan nan nan nan nan nan nan nan nan nan nan nan nan nan nan nan nan nan nan nan nan nan nan 340 336 331 331 328 319 318 318 312 311 310 306 303 nan nan nan nan nan nan nan
nan nan nan nan nan nan nan nan nan nan nan nan nan nan nan nan nan nan nan nan 291 nan nan 328 327 328 323 324 329 320 320 318 314 309 304 304 302 nan nan nan nan nan nan nan
nan nan nan nan nan nan nan nan nan nan nan nan nan nan nan nan nan nan nan nan nan 276 286 297 316 315 316 321 321 315 315 315 309 305 304 303 302 nan nan nan nan nan nan nan
nan nan nan nan nan nan nan nan nan nan nan nan nan nan nan nan nan nan nan nan nan 284 296 305 313 311 315 308 308 312 309 306 303 302 nan nan nan nan nan nan nan nan nan nan
nan nan nan nan nan nan nan nan nan nan nan nan nan nan nan nan nan nan nan nan nan 277 297 299 305 306 306 308 307 309 304 300 298 297 nan nan nan nan nan nan nan nan nan nan
nan nan nan nan nan nan nan nan nan nan nan nan nan nan nan nan nan nan nan nan 271 269 271 274 287 304 301 299 291 286 293 296 294 nan nan nan nan nan nan nan nan nan nan nan
nan nan nan nan nan nan nan nan nan nan nan nan nan nan nan nan nan nan nan nan nan 294 294 289 288 288 285 285 286 286 279 297 nan nan nan nan nan nan nan nan nan nan nan nan
nan nan nan nan nan nan nan nan nan nan nan nan nan nan nan nan nan nan nan nan nan nan 292 294 293 292 291 294 286 284 nan nan nan nan nan nan nan nan nan nan nan nan nan nan
nan nan nan nan nan nan nan nan nan nan nan nan nan nan nan nan nan nan nan nan nan nan 285 295 295 297 301 293 290 nan nan nan nan nan nan nan nan nan nan nan nan nan nan nan
nan nan nan nan nan nan nan nan nan nan nan nan nan nan nan nan nan nan nan nan nan nan nan nan nan nan 294 nan nan nan nan nan nan nan nan nan nan nan nan nan nan nan nan nan
nan nan nan nan nan nan nan nan nan nan nan nan nan nan nan nan nan nan nan nan nan nan nan nan nan nan nan nan nan nan nan nan nan nan nan nan nan nan nan nan nan nan nan nan
nan nan nan nan nan nan nan nan nan nan nan nan nan nan nan nan nan nan nan nan nan nan nan nan nan nan nan nan nan nan nan nan nan nan nan nan nan nan nan nan nan nan nan nan
nan nan nan nan nan nan nan nan nan nan nan nan nan nan nan nan nan nan nan nan nan nan nan nan nan nan nan nan nan nan nan nan nan nan nan nan nan nan nan nan nan nan nan nan
nan nan nan nan nan nan nan nan nan nan nan nan nan nan nan nan nan nan nan nan nan nan nan nan nan nan nan nan nan nan nan nan nan nan nan nan nan nan nan nan nan nan nan nan
nan nan nan nan nan nan nan nan nan nan nan nan nan nan nan nan nan nan nan nan nan nan nan nan nan nan nan nan nan nan nan nan nan nan nan nan nan nan nan nan nan nan nan nan
nan nan nan nan nan nan nan nan nan nan nan nan nan nan nan nan nan nan nan nan nan nan nan nan nan nan nan nan nan nan nan nan nan nan nan nan nan nan nan nan nan nan nan nan
nan nan nan nan nan nan nan nan nan nan nan nan nan nan nan nan nan nan nan nan nan nan nan nan nan nan nan nan nan nan nan nan nan nan nan nan nan nan nan nan nan nan nan nan
nan nan nan nan nan nan nan nan nan nan nan nan nan nan nan nan nan nan nan nan nan nan nan nan nan nan nan nan nan nan nan nan nan nan nan nan nan nan nan nan nan nan nan nan
nan nan nan nan nan nan nan nan nan nan nan nan nan nan nan nan nan nan nan nan nan nan nan nan nan nan nan nan nan nan nan nan nan nan nan nan nan nan nan nan nan nan nan nan